Chicago, Illinois, United States (60601)
Lat: 41.85N, Lon: 87.65W
Wx Zone: ILZ014
Local Info
Past Weather Observations for Monday, March 2, 2015

NOTE: This archive is for the closest National Weather Service station to Chicago. Information may differ from the station used for current weather conditions.

Click here for Long-term Archive

Time Weather Temperature Dewpoint Humidity Pressure Winds Precip Visibility
23:53
Overcast
28°F / -2°C 16°F / -9°C 59% 30.24 in
(1024 mb)
SSE 6.9 mph
(SSE 11 kph)
- 10SM
22:53
Overcast
28°F / -2°C 14°F / -10°C 55% 30.27 in
(1025 mb)
S 6.9 mph
(S 11 kph)
- 10SM
21:53
Overcast
28°F / -2°C 14°F / -10°C 55% 30.3 in
(1026 mb)
S 9.2 mph
(S 15 kph)
- 10SM
20:53
Overcast
28°F / -2°C 16°F / -9°C 59% 30.33 in
(1027 mb)
S 8.1 mph
(S 13 kph)
- 10SM
19:53
Overcast
28°F / -2°C 14°F / -10°C 55% 30.36 in
(1028 mb)
S 11.5 mph
(S 19 kph)
- 10SM
18:53
Overcast
28°F / -2°C 14°F / -10°C 55% 30.36 in
(1028 mb)
S 8.1 mph
(S 13 kph)
- 10SM
17:53
Overcast
30°F / -1°C 16°F / -9°C 55% 30.39 in
(1029 mb)
S 8.1 mph
(S 13 kph)
- 9SM
16:53
Overcast
30°F / -1°C 19°F / -7°C 64% 30.42 in
(1030 mb)
ESE 8.1 mph
(ESE 13 kph)
- 10SM
15:53
Mostly Cloudy
30°F / -1°C 18°F / -8°C 59% 30.42 in
(1030 mb)
E 10.4 mph
(E 17 kph)
- 10SM
14:53
Mostly Cloudy
34°F / 1°C 12°F / -11°C 41% 30.42 in
(1030 mb)
S 5.8 mph
(S 9 kph)
- 10SM
13:53
Mostly Cloudy
34°F / 1°C 12°F / -11°C 41% 30.45 in
(1031 mb)
Calm - 10SM
12:53
Mostly Cloudy
34°F / 1°C 10°F / -12°C 38% 30.51 in
(1033 mb)
Calm - 10SM
11:53
Mostly Cloudy
30°F / -1°C 12°F / -11°C 47% 30.54 in
(1034 mb)
Calm - 10SM
10:53
Partly Cloudy
28°F / -2°C 12°F / -11°C 51% 30.54 in
(1034 mb)
N 3.5 mph
(N 6 kph)
- 10SM
09:53
Partly Cloudy
27°F / -3°C 14°F / -10°C 59% 30.51 in
(1033 mb)
WNW 4.6 mph
(WNW 7 kph)
- 10SM
08:53
Partly Cloudy
25°F / -4°C 12°F / -11°C 59% 30.51 in
(1033 mb)
NW 11.5 mph
(NW 19 kph)
- 10SM
07:53
Partly Cloudy
19°F / -7°C 10°F / -12°C 68% 30.51 in
(1033 mb)
NW 6.9 mph
(NW 11 kph)
- 10SM
06:53
Partly Cloudy
16°F / -9°C 10°F / -12°C 79% 30.48 in
(1032 mb)
WNW 4.6 mph
(WNW 7 kph)
- 10SM
05:53
Clear
16°F / -9°C 9°F / -13°C 73% 30.48 in
(1032 mb)
WNW 6.9 mph
(WNW 11 kph)
- 10SM
04:53
Clear
18°F / -8°C 9°F / -13°C 68% 30.45 in
(1031 mb)
WNW 8.1 mph
(WNW 13 kph)
- 10SM
03:53
Clear
18°F / -8°C 9°F / -13°C 68% 30.42 in
(1030 mb)
W 8.1 mph
(W 13 kph)
- 10SM
02:53
Clear
19°F / -7°C 9°F / -13°C 63% 30.42 in
(1030 mb)
W 9.2 mph
(W 15 kph)
- 10SM
01:53
Clear
19°F / -7°C 9°F / -13°C 63% 30.42 in
(1030 mb)
W 6.9 mph
(W 11 kph)
- 10SM
00:53
Clear
19°F / -7°C 10°F / -12°C 68% 30.39 in
(1029 mb)
WNW 8.1 mph
(WNW 13 kph)
- 10SM
Time Weather Temperature Dewpoint Humidity Pressure Winds Precip Visibility


Weather for websites

WeatherForYou.com, LLC is not responsible for any damages or problems caused by this service. Current weather conditions are obtained from the closest station including government and personal stations which may have varying degrees of accuracy. Weather forecasts are derived from the NOAA NDFD. Like all things, this site belongs to Jesus Christ... He just trusts me to maintain it. If you have any questions or comments email webmaster@weatherforyou.com

Copyright © 2015, WeatherForYou.com LLC. All rights reserved.